COSMOS 2425 (716)

Last updated on Wed Dec 22 2021 00:02:59 GMT+0000 (Coordinated Universal Time)

1 29670U 06062A 21354.88553179 .00000043 00000+0 00000+0 0 9994 2 29670 64.7979 249.1550 0024541 346.4570 277.3790 2.13111101116643
UTC large
Height (km)
Speed (km/s)
/
Latitude / Longitude
Inclination (degrees)
Orbital Period (minutes)
Azimuth
Elevation
Range (km)
Doppler Factor

Next 0 passes for location: London (51.5072 / 0.1276)

Sorry there are no passes over London.